Location: Helensbirgh
(56.0153°N, 4.7348°W)
Time: 01:26:02
(UTC+00:00)

Envisat - Pass Details

Date: 25 October 2019
Orbit: 764 x 766 km, 98.1° (Epoch: 22 November)

Event Time Altitude Azimuth Distance (km) Brightness Sun altitude
Rises 07:24:16 0° 21° (NNE) 3,248 6.4 -7.0°
Reaches altitude 10° 07:26:56 10° 33° (NNE) 2,316 5.8 -6.7°
Maximum altitude 07:31:16 27° 92° (E) 1,431 5.5 -6.1°
Drops below altitude 10° 07:35:34 10° 150° (SSE) 2,300 6.2 -5.5°
Sets 07:38:11 0° 162° (SSE) 3,221 6.7 -5.1°
